Date String (YYYY-MM-DD hh:mm:ss) UTC,Instrument flags,Ambient pressure (hPa),Sample flow (lpm),Bypass flow (lpm),Sample temperature (°C),Ambient temperature (°C),ASC tube jacket temperature (°C),LED temperature (°C),Box temperature (°C),Sample RH (%),Span deviation,Mass concentration (μg/m³),Mass concentration (μg/m³),Mass concentration (μg/m³)
DateTimeUTC,F1_M11,P_M11,Q1_M11,Q2_M11,T1_M11,T2_M11,T3_M11,T4_M11,T5_M11,U1_M11,ZSPAN_M11,X0_M11,X2_M11,X1_M11
2022-04-29 15:00:00,,0814.2,5.01,0.00,27.7,27.1,00.0,36.5,29.5,06.7,0002.7,0023.48,0007.43,0004.10
2022-04-29 15:01:00,,0814.3,5.00,0.00,27.7,27.1,00.0,36.6,29.5,06.5,0003.1,0024.48,0007.47,0004.12
2022-04-29 15:02:00,,0814.3,5.01,0.00,27.7,27.2,00.0,36.6,29.5,06.3,0003.6,0026.23,0007.50,0004.14
2022-04-29 15:03:00,,0814.4,4.99,0.00,27.8,27.2,00.0,36.6,29.6,06.4,0003.5,0026.08,0007.52,0004.16
2022-04-29 15:04:00,,0814.3,4.99,0.00,27.8,27.2,00.0,36.6,29.6,06.4,0003.6,0025.54,0007.54,0004.17
2022-04-29 15:05:00,,0814.4,5.01,0.00,27.8,27.2,00.0,36.6,29.6,06.5,0003.3,0024.75,0007.55,0004.19
2022-04-29 15:06:00,,0814.4,4.99,0.00,27.8,27.2,00.0,36.7,29.6,06.6,0003.3,0023.52,0007.48,0004.21
2022-04-29 15:07:00,,0814.4,5.01,0.00,27.8,27.2,00.0,36.7,29.6,06.7,0003.3,0022.49,0007.39,0004.23
2022-04-29 15:08:00,,0814.4,5.00,0.00,27.8,27.2,00.0,36.7,29.6,06.7,0003.0,0022.27,0007.33,0004.24
2022-04-29 15:09:00,,0814.4,4.99,0.00,27.8,27.2,00.0,36.7,29.6,06.7,0001.7,0022.11,0007.40,0004.24
2022-04-29 15:10:00,,0814.4,5.00,0.00,27.8,27.2,00.0,36.7,29.6,06.7,0001.3,0021.80,0007.42,0004.24
2022-04-29 15:11:00,,0814.4,5.01,0.00,27.8,27.2,00.0,36.7,29.6,06.7,0003.1,0022.22,0007.42,0004.24
2022-04-29 15:12:00,,0814.4,5.00,0.00,27.8,27.2,00.0,36.7,29.6,06.5,0000.0,0021.59,0007.46,0004.25
2022-04-29 15:13:00,,0814.4,4.99,0.00,27.8,27.2,00.0,36.7,29.6,06.7,0000.0,0019.20,0007.44,0004.25
2022-04-29 15:14:00,,0814.4,5.02,0.00,27.8,27.2,00.0,36.7,29.6,06.6,0000.0,0019.63,0007.47,0004.22
2022-04-29 15:15:00,,0814.4,4.99,0.00,27.9,27.2,00.0,36.8,29.7,06.2,0000.5,0019.87,0007.45,0004.22
2022-04-29 15:16:00,,0814.4,4.99,0.00,27.9,27.2,00.0,36.8,29.7,06.3,0001.3,0019.56,0007.42,0004.22
2022-04-29 15:17:00,,0814.4,5.01,0.00,27.9,27.3,00.0,36.8,29.7,06.1,0000.0,0020.01,0007.45,0004.22
2022-04-29 15:18:00,,0814.4,4.99,0.00,27.9,27.3,00.0,36.8,29.8,06.1,0000.0,0021.02,0007.55,0004.23
2022-04-29 15:19:00,,0814.4,4.99,0.00,28.0,27.3,00.0,36.8,29.8,06.1,0000.0,0022.25,0007.61,0004.26
2022-04-29 15:20:00,,0814.4,5.02,0.00,28.0,27.3,00.0,36.8,29.8,06.2,0000.0,0022.34,0007.57,0004.27
2022-04-29 15:21:00,,0814.4,4.98,0.00,28.0,27.3,00.0,36.8,29.8,06.3,0000.0,0022.45,0007.61,0004.28
2022-04-29 15:22:00,,0814.3,5.02,0.00,28.0,27.3,00.0,36.8,29.8,06.3,0000.0,0021.67,0007.48,0004.29
2022-04-29 15:23:00,,0814.5,4.99,0.00,28.0,27.3,00.0,36.9,29.8,06.2,0002.5,0021.30,0007.40,0004.29
2022-04-29 15:24:00,,0814.7,5.01,0.00,28.0,27.3,00.0,36.9,29.8,06.3,0004.5,0021.66,0007.43,0004.30
2022-04-29 15:25:00,,0814.5,5.00,0.00,28.0,27.3,00.0,36.9,29.8,06.5,0004.3,0021.10,0007.43,0004.32
2022-04-29 15:26:00,,0814.4,5.01,0.00,28.0,27.3,00.0,36.9,29.8,06.2,0004.3,0020.73,0007.42,0004.33
2022-04-29 15:27:00,,0814.4,4.98,0.00,28.0,27.3,00.0,36.9,29.8,06.3,0002.4,0020.92,0007.38,0004.33
2022-04-29 15:28:00,,0814.4,5.01,0.00,28.1,27.3,00.0,36.9,29.8,06.4,0001.6,0020.50,0007.35,0004.33
2022-04-29 15:29:00,,0814.3,4.98,0.00,28.1,27.3,00.0,36.9,29.8,06.3,0002.8,0019.78,0007.29,0004.33
2022-04-29 15:30:00,,0814.4,5.02,0.00,28.1,27.3,00.0,36.9,29.9,06.2,0000.0,0018.90,0007.34,0004.32
2022-04-29 15:31:00,,0814.3,4.99,0.00,28.1,27.2,00.0,36.9,29.9,06.5,0000.0,0018.11,0007.29,0004.31
2022-04-29 15:32:00,,0814.4,5.00,0.00,28.1,27.2,00.0,36.9,29.9,06.7,0001.6,0017.90,0007.20,0004.30
2022-04-29 15:33:00,,0814.5,5.01,0.00,28.1,27.2,00.0,36.9,29.9,06.6,0002.6,0018.20,0007.26,0004.31
2022-04-29 15:34:00,,0814.4,4.99,0.00,28.1,27.3,00.0,36.9,29.9,06.7,0001.5,0018.36,0007.29,0004.29
2022-04-29 15:35:00,,0814.4,5.02,0.00,28.1,27.3,00.0,37.0,29.9,06.7,0000.0,0018.52,0007.36,0004.29
2022-04-29 15:36:00,,0814.4,4.99,0.00,28.1,27.3,00.0,37.0,29.9,06.7,0000.0,0018.40,0007.30,0004.28
2022-04-29 15:37:00,,0814.3,5.02,0.00,28.1,27.3,00.0,37.0,29.9,06.8,0000.0,0018.74,0007.25,0004.28
2022-04-29 15:38:00,,0814.4,4.99,0.00,28.1,27.3,00.0,37.0,29.9,06.5,0001.5,0018.91,0007.25,0004.27
2022-04-29 15:39:00,,0814.5,5.00,0.00,28.1,27.2,00.0,37.0,29.9,06.5,0000.6,0019.82,0007.32,0004.28
2022-04-29 15:40:00,,0814.6,4.99,0.00,28.1,27.2,00.0,37.0,29.9,06.4,0000.0,0021.34,0007.45,0004.29
2022-04-29 15:41:00,,0814.8,5.02,0.00,28.1,27.2,00.0,37.0,30.0,06.6,0001.0,0021.62,0007.41,0004.28
2022-04-29 15:42:00,,0814.9,4.98,0.00,28.1,27.2,00.0,37.0,30.0,06.6,0001.4,0023.10,0007.45,0004.28
2022-04-29 15:43:00,,0814.8,5.01,0.00,28.1,27.2,00.0,37.0,30.0,06.6,0000.6,0023.41,0007.52,0004.28
2022-04-29 15:44:00,,0814.9,5.00,0.00,28.1,27.2,00.0,37.0,30.0,06.8,0000.0,0023.22,0007.45,0004.26
2022-04-29 15:45:00,,0815.0,5.00,0.00,28.2,27.3,00.0,37.0,30.0,06.7,0000.0,0022.86,0007.44,0004.27
2022-04-29 15:46:00,,0815.0,5.00,0.00,28.2,27.3,00.0,37.0,30.0,06.7,0000.0,0022.18,0007.40,0004.27
2022-04-29 15:47:00,,0814.8,5.00,0.00,28.2,27.2,00.0,37.0,29.9,06.8,0000.0,0022.36,0007.47,0004.28
2022-04-29 15:48:00,,0814.8,4.99,0.00,28.1,27.2,00.0,37.0,29.9,07.0,0000.0,0022.85,0007.60,0004.28
2022-04-29 15:49:00,,0814.9,5.01,0.00,28.1,27.2,00.0,37.0,29.9,06.8,0000.0,0023.45,0007.71,0004.30
2022-04-29 15:50:00,,0814.8,5.00,0.00,28.1,27.2,00.0,37.0,29.9,06.7,0000.0,0022.81,0007.71,0004.31
2022-04-29 15:51:00,,0814.7,5.01,0.00,28.1,27.2,00.0,37.0,29.9,06.5,0000.0,0021.31,0007.66,0004.31
2022-04-29 15:52:00,,0814.7,4.99,0.00,28.1,27.2,00.0,37.0,29.9,06.1,0000.0,0020.62,0007.69,0004.31
2022-04-29 15:53:00,,0814.7,5.01,0.00,28.1,27.2,00.0,37.0,29.9,06.7,0000.0,0019.50,0007.72,0004.31
2022-04-29 15:54:00,,0814.7,4.99,0.00,28.1,27.2,00.0,37.1,29.9,06.9,0000.0,0019.43,0007.68,0004.32
2022-04-29 15:55:00,,0814.6,5.00,0.00,28.1,27.2,00.0,37.1,29.9,07.0,0000.0,0019.28,0007.71,0004.34
2022-04-29 15:56:00,,0814.6,5.01,0.00,28.1,27.2,00.0,37.1,29.9,07.1,0000.0,0019.19,0007.69,0004.35
2022-04-29 15:57:00,,0814.9,4.99,0.00,28.1,27.2,00.0,37.1,29.9,07.1,0000.0,0019.32,0007.72,0004.35
2022-04-29 15:58:00,,0814.8,5.00,0.00,28.1,27.2,00.0,37.1,29.9,06.9,0000.0,0019.46,0007.73,0004.35
2022-04-29 15:59:00,,0814.7,5.01,0.00,28.1,27.2,00.0,37.1,29.9,06.6,0000.0,0018.89,0007.68,0004.36
